When you browse on this site, cookies collect data to enhance your experience and personalize the content and advertising you see.
Visit our Privacy Policy to learn more. By continuing to use the site, you agree to this use of cookies and data.
  • In United Kingdom
  • List of Countries
  • For 7 days
  • Water Temperature
  • Weather Map
  • Weather Widgets
  • user-avatar
    Login

    Hourly Weather Campulung Moldovenesc

    Today, 4 June, Thursday

    Time Temperature Precipitation Wind Pressure Humidity
    00:00 +3°C° 0 mm 2 mps 672 mmHg 92%
    01:00 +3°C° 0 mm 2 mps 672 mmHg 92%
    02:00 +3°C° 0 mm 2 mps 672 mmHg 93%
    03:00 +3°C° 0 mm 2 mps 672 mmHg 93%
    04:00 +3°C° 0 mm 2 mps 672 mmHg 93%
    05:00 +3°C° 0 mm 2 mps 672 mmHg 93%
    06:00 +7°C° 0 mm 1 mps 673 mmHg 83%
    07:00 +10°C° 0 mm 1 mps 673 mmHg 72%
    08:00 +12°C° 0 mm 1 mps 674 mmHg 62%
    09:00 +14°C° 0 mm 2 mps 674 mmHg 58%
    10:00 +15°C° 0 mm 2 mps 674 mmHg 53%
    11:00 +16°C° 0 mm 3 mps 674 mmHg 49%
    12:00 +16°C° 0.1 mm 3 mps 674 mmHg 48%
    13:00 +17°C° 0.1 mm 3 mps 674 mmHg 48%
    14:00 +17°C° 0.1 mm 4 mps 674 mmHg 47%
    15:00 +17°C° 0.1 mm 4 mps 674 mmHg 51%
    16:00 +15°C° 0.1 mm 4 mps 674 mmHg 56%
    17:00 +15°C° 0.1 mm 4 mps 673 mmHg 61%
    18:00 +13°C° 0 mm 4 mps 673 mmHg 68%
    19:00 +12°C° 0 mm 3 mps 673 mmHg 75%
    20:00 +12°C° 0 mm 2 mps 672 mmHg 82%
    21:00 +10°C° 0 mm 2 mps 673 mmHg 84%
    22:00 +10°C° 0 mm 2 mps 673 mmHg 85%
    23:00 +10°C° 0 mm 3 mps 673 mmHg 87%

    Tomorrow, 5 June, Friday

    Time Temperature Precipitation Wind Pressure Humidity
    00:00 +10°C° 0 mm 3 mps 673 mmHg 87%
    01:00 +10°C° 0 mm 2 mps 673 mmHg 87%
    02:00 +10°C° 0 mm 2 mps 673 mmHg 87%
    03:00 +10°C° 0 mm 2 mps 673 mmHg 86%
    04:00 +10°C° 0 mm 2 mps 673 mmHg 85%
    05:00 +10°C° 0 mm 2 mps 673 mmHg 84%
    06:00 +12°C° 0 mm 3 mps 673 mmHg 77%
    07:00 +13°C° 0 mm 3 mps 674 mmHg 69%
    08:00 +15°C° 0 mm 4 mps 675 mmHg 62%
    09:00 +18°C° 0 mm 4 mps 675 mmHg 56%
    10:00 +19°C° 0 mm 5 mps 675 mmHg 50%
    11:00 +21°C° 0 mm 5 mps 676 mmHg 44%
    12:00 +21°C° 0 mm 5 mps 676 mmHg 44%
    13:00 +22°C° 0 mm 5 mps 676 mmHg 44%
    14:00 +22°C° 0 mm 5 mps 676 mmHg 43%
    15:00 +22°C° 0 mm 5 mps 676 mmHg 45%
    16:00 +22°C° 0 mm 4 mps 676 mmHg 48%
    17:00 +22°C° 0 mm 4 mps 675 mmHg 50%
    18:00 +20°C° 0 mm 3 mps 675 mmHg 58%
    19:00 +17°C° 0 mm 3 mps 675 mmHg 66%
    20:00 +15°C° 0 mm 2 mps 674 mmHg 73%
    21:00 +14°C° 0 mm 2 mps 674 mmHg 76%
    22:00 +13°C° 0 mm 2 mps 675 mmHg 79%
    23:00 +12°C° 0 mm 2 mps 675 mmHg 82%

    Day after tomorrow, 6 June, Saturday

    Time Temperature Precipitation Wind Pressure Humidity
    00:00 +12°C° 0 mm 2 mps 675 mmHg 82%
    01:00 +12°C° 0 mm 2 mps 675 mmHg 82%
    02:00 +12°C° 0 mm 2 mps 675 mmHg 82%
    03:00 +12°C° 0 mm 1 mps 675 mmHg 84%
    04:00 +12°C° 0 mm 1 mps 676 mmHg 85%
    05:00 +12°C° 0 mm 1 mps 676 mmHg 86%
    06:00 +14°C° 0 mm 1 mps 676 mmHg 80%
    07:00 +16°C° 0 mm 1 mps 677 mmHg 74%
    08:00 +19°C° 0 mm 1 mps 678 mmHg 68%
    09:00 +20°C° 0.1 mm 1 mps 678 mmHg 66%
    10:00 +21°C° 0.1 mm 1 mps 679 mmHg 64%
    11:00 +22°C° 0.1 mm 1 mps 679 mmHg 61%
    12:00 +22°C° 0.9 mm 1 mps 679 mmHg 66%
    13:00 +22°C° 0.9 mm 1 mps 679 mmHg 71%
    14:00 +21°C° 0.9 mm 1 mps 678 mmHg 76%
    15:00 +21°C° 1.3 mm 1 mps 678 mmHg 78%
    16:00 +21°C° 1.3 mm 1 mps 678 mmHg 81%
    17:00 +21°C° 1.3 mm 1 mps 677 mmHg 83%
    18:00 +19°C° 0.6 mm 1 mps 677 mmHg 86%
    19:00 +18°C° 0.6 mm 1 mps 677 mmHg 88%
    20:00 +16°C° 0.6 mm 1 mps 677 mmHg 91%
    21:00 +15°C° 0 mm 1 mps 677 mmHg 92%
    22:00 +13°C° 0 mm 0 mps 677 mmHg 92%
    23:00 +12°C° 0 mm 0 mps 677 mmHg 93%

    7 June, Sunday

    Time Temperature Precipitation Wind Pressure Humidity
    00:00 +13°C° 0 mm 1 mps 677 mmHg 93%
    01:00 +13°C° 0 mm 1 mps 677 mmHg 93%
    02:00 +13°C° 0 mm 1 mps 677 mmHg 93%
    03:00 +13°C° 0 mm 1 mps 677 mmHg 92%
    04:00 +13°C° 0 mm 1 mps 677 mmHg 92%
    05:00 +13°C° 0 mm 1 mps 677 mmHg 91%
    06:00 +14°C° 0 mm 1 mps 677 mmHg 86%
    07:00 +16°C° 0 mm 1 mps 678 mmHg 80%
    08:00 +19°C° 0 mm 1 mps 678 mmHg 75%
    09:00 +19°C° 0.1 mm 2 mps 679 mmHg 68%
    10:00 +20°C° 0.1 mm 2 mps 679 mmHg 61%
    11:00 +21°C° 0.1 mm 2 mps 679 mmHg 54%
    12:00 +20°C° 0.4 mm 2 mps 679 mmHg 62%
    13:00 +19°C° 0.4 mm 2 mps 678 mmHg 69%
    14:00 +18°C° 0.4 mm 3 mps 678 mmHg 76%
    15:00 +18°C° 0.2 mm 3 mps 678 mmHg 74%
    16:00 +18°C° 0.2 mm 3 mps 678 mmHg 72%
    17:00 +18°C° 0.2 mm 3 mps 677 mmHg 70%
    18:00 +16°C° 0.1 mm 2 mps 677 mmHg 77%
    19:00 +15°C° 0.1 mm 1 mps 677 mmHg 83%
    20:00 +13°C° 0.1 mm 0 mps 677 mmHg 90%
    21:00 +12°C° 0.5 mm 0 mps 677 mmHg 91%
    22:00 +12°C° 0.5 mm 0 mps 677 mmHg 92%
    23:00 +12°C° 0.5 mm 1 mps 677 mmHg 93%

    8 June, Monday

    Time Temperature Precipitation Wind Pressure Humidity
    00:00 +12°C° 0 mm 1 mps 676 mmHg 93%
    01:00 +11°C° 0 mm 1 mps 676 mmHg 93%
    02:00 +11°C° 0 mm 1 mps 676 mmHg 93%
    03:00 +11°C° 0 mm 1 mps 676 mmHg 93%
    04:00 +11°C° 0 mm 1 mps 676 mmHg 92%
    05:00 +11°C° 0 mm 1 mps 676 mmHg 92%
    06:00 +13°C° 0 mm 1 mps 676 mmHg 85%
    07:00 +16°C° 0 mm 1 mps 677 mmHg 79%
    08:00 +17°C° 0 mm 0 mps 678 mmHg 73%
    09:00 +21°C° 0.1 mm 1 mps 678 mmHg 65%
    10:00 +22°C° 0.1 mm 1 mps 678 mmHg 58%
    11:00 +24°C° 0.1 mm 1 mps 679 mmHg 51%
    12:00 +23°C° 1 mm 1 mps 678 mmHg 58%
    13:00 +23°C° 1 mm 2 mps 678 mmHg 64%
    14:00 +21°C° 1 mm 2 mps 678 mmHg 71%
    15:00 +21°C° 1.5 mm 2 mps 678 mmHg 72%
    16:00 +22°C° 1.5 mm 1 mps 678 mmHg 74%
    17:00 +21°C° 1.5 mm 1 mps 677 mmHg 75%
    18:00 +20°C° 0.6 mm 1 mps 677 mmHg 80%
    19:00 +18°C° 0.6 mm 1 mps 677 mmHg 84%
    20:00 +15°C° 0.6 mm 0 mps 677 mmHg 89%
    21:00 +15°C° 0.2 mm 1 mps 677 mmHg 89%
    22:00 +14°C° 0.2 mm 1 mps 677 mmHg 90%
    23:00 +13°C° 0.2 mm 1 mps 677 mmHg 90%

    9 June, Tuesday

    Time Temperature Precipitation Wind Pressure Humidity
    00:00 +13°C° 0 mm 1 mps 677 mmHg 90%
    01:00 +13°C° 0 mm 1 mps 677 mmHg 90%
    02:00 +12°C° 0 mm 1 mps 677 mmHg 90%
    03:00 +12°C° 0 mm 1 mps 677 mmHg 90%
    04:00 +12°C° 0 mm 1 mps 677 mmHg 89%
    05:00 +12°C° 0 mm 1 mps 677 mmHg 89%
    06:00 +14°C° 0 mm 0 mps 678 mmHg 83%
    07:00 +16°C° 0 mm 0 mps 679 mmHg 77%
    08:00 +19°C° 0 mm 0 mps 679 mmHg 71%
    09:00 +21°C° 0.3 mm 1 mps 679 mmHg 69%
    10:00 +22°C° 0.3 mm 1 mps 680 mmHg 68%
    11:00 +23°C° 0.3 mm 2 mps 680 mmHg 66%
    12:00 +22°C° 1.4 mm 1 mps 679 mmHg 71%
    13:00 +22°C° 1.4 mm 1 mps 679 mmHg 76%
    14:00 +21°C° 1.4 mm 1 mps 679 mmHg 81%
    15:00 +21°C° 0.9 mm 1 mps 679 mmHg 83%
    16:00 +20°C° 0.9 mm 1 mps 679 mmHg 85%
    17:00 +19°C° 0.9 mm 1 mps 678 mmHg 88%
    18:00 +16°C° 0.1 mm 0 mps 678 mmHg 88%
    19:00 +15°C° 0.1 mm 0 mps 678 mmHg 88%
    20:00 +14°C° 0.1 mm 0 mps 678 mmHg 88%
    21:00 +14°C° 0.1 mm 0 mps 678 mmHg 89%
    22:00 +13°C° 0.1 mm 0 mps 678 mmHg 89%
    23:00 +13°C° 0.1 mm 1 mps 678 mmHg 90%
    Show more